STARLINK-2735, 48667

Orbit data source: Space-Track

STARLINK-2735, 48667 is a payload satellite owned by SpaceX/Seattle (US) in LEO that was launched on Wed, 26 May 2021 UTC via an FALCON 9 launch vehicle from the Air Force Eastern Test Range (AFETR). Payload-class satellites include a variety of spacecraft equipped with specific instruments for various scientific and technological missions. These include communications satellites like Starlink; space stations such as the ISS; scientific satellites like the Hubble; Earth observation satellites from companies like Planet Labs, Umbra, and HawkEye 360; GPS; miniature CubeSats for education and research; and military/defense satellites.

Loading next visibility...
Identifier
48667, 2021-044AF
Orbit
LEO
Country
Flag of USUS
Related business
Manufacturer
SpaceX/Seattle
Mission
Operational Commercial Communications
Bus & Motor
STARLINK, Unknown motor
Mass
260 kg wet, ~248 kg dry
Launch date (UTC)
2021-05-26 (5 years ago)
Launch vehicle
FALCON 9
Launch site
Air Force Eastern Test Range (AFETR)
Object type
Payload
Rocket body
Debris
Shape & HBR
Box + 1 Pan, 10.1 m
Radar Cross Section
13.562 m², Large (>1 m²)

Expand to show TLE details & history
Last TLE update: 20 hours ago

TLE from 20 hours ago
0 STARLINK-2735
1 48667U 21044AF  25348.78229513  .00001658  00000-0  13019-3 0  9998
2 48667  53.0551 132.7822 0001275  86.3369 273.7765 15.06394059251059
Epoch: 2025-12-14T18:46Z
TLE epoch observation values (Epoch: 2025-12-14T18:46:30.299Z)
Latitude
-0.00007°
Longitude
127.46563°
Altitude
548.051 km
Speed
7.589 km/s
True Right ascension
08h 51m 07s
True Declination
0° 00' 00"
Sunlit
Object was in full shadow at epoch
Visualization orbit readout
Latitude
Unknown
Longitude
Unknown
Altitude
Unknown
Speed
Unknown
Apparent Right ascension
Unknown
Apparent Declination
Unknown
Sunlit
N/A
Visualization observer readout
Local Sidereal Time
13:25:44
Azimuth
Unknown
Elevation
Unknown
Doppler factor
Unknown
Orbital elements
Apogee altitude
548.383 km
Perigee altitude
546.617 km
Semi-major axis
6,925.637 km
Eccentricity
0.00013
Inclination
53.0551°
RAAN
132.7822°
Arg. of periapsis
86.3369°
True anomaly
273.76192°
Mean anomaly
273.7765°
Eccentric anomaly
273.76921°
Mean motion
3.76577 °/min
Orbital period
95.6 mins
BSTAR
0.00013019
Loading maneuver chart data...
Computing Atmospheric mass density...
Loading historical data...
Loading historical data...
Loading historical data...
Loading historical data...
Loading historical data...
Loading historical data...
Loading historical data...

Documentation

Showing up to 5 results
|